Location: Bailleul
(50.3375°N, 2.8513°E)
Time: 13:24:38
(UTC+00:00)

Cosmos 1975 Rocket - Pass Details

Date: 16 June 2021
Orbit: 603 x 634 km, 82.5° (Epoch: 05 August)

Event Time Altitude Azimuth Distance (km) Brightness Sun altitude
Exits shadow 21:18:22 - 191° (S) 2,614 5.9 -9.1°
Reaches altitude 10° 21:19:58 10° 191° (SSW) 1,963 5.2 -9.2°
Maximum altitude 21:24:19 83° 279° (W) 627 3.1 -9.6°
Drops below altitude 10° 21:28:45 10° 9° (N) 1,998 6.4 -10.0°
Sets 21:31:00 0° 10° (N) 2,914 7.3 -10.2°
